Location: Ash Swamp
(41.5170°N, 74.6157°W)
Time: 02:41:23
(UTC+00:00)

USA 238 - Pass Details

Date: 14 July 2020
Orbit: 1009 x 1203 km, 63.4° (Epoch: 11 August)

Event Time Altitude Azimuth Distance (km) Brightness Sun altitude
Exits shadow 08:20:53 13° 203° (SSW) 2,574 5.1 -12.2°
Maximum altitude 08:26:48 72° 121° (ESE) 1,089 3.8 -11.4°
Drops below altitude 10° 08:33:36 10° 39° (NE) 2,906 7.5 -10.5°
Sets 08:36:19 0° 37° (NE) 3,892 8.6 -10.1°
